Location: Berlin
(42.3812°N, 71.6370°W)
Time: 20:34:54
(UTC+00:00)

USA 267 - Pass Details

Date: 15 November 2025
Orbit: 1100 x 1108 km, 123.0° (Epoch: 21 November)

Event Time Altitude Azimuth Distance (km) Brightness Sun altitude
Rises 10:26:51 0° 48° (NE) 3,924 6.7 -13.2°
Reaches altitude 10° 10:29:29 10° 41° (NE) 2,963 5.9 -12.7°
Maximum altitude 10:35:25 39° 335° (NNW) 1,600 3.8 -11.7°
Enters shadow 10:40:53 12° 272° (W) 2,795 4.8 -10.7°
